TimeEDT,TemperatureF,Dew PointF,Humidity,Sea Level PressureIn,VisibilityMPH,Wind Direction,Wind SpeedMPH,Gust SpeedMPH,PrecipitationIn,Events,Conditions,WindDirDegrees,DateUTC
2:15 AM,68.4,65.5,90,29.79,10.0,Calm,Calm,-,N/A,,Clear,0,2012-10-19 06:15:00
2:35 AM,68.2,65.3,90,29.78,7.0,Calm,Calm,-,N/A,,Clear,0,2012-10-19 06:35:00
2:55 AM,67.8,65.5,92,29.78,5.0,Calm,Calm,-,N/A,,Clear,0,2012-10-19 06:55:00
3:15 AM,68.0,65.8,93,29.77,10.0,Calm,Calm,-,N/A,,Clear,0,2012-10-19 07:15:00
3:35 AM,68.0,66.0,93,29.77,10.0,Calm,Calm,-,N/A,,Clear,0,2012-10-19 07:35:00
3:55 AM,68.2,66.2,93,29.77,10.0,South,3.5,-,N/A,,Scattered Clouds,170,2012-10-19 07:55:00
4:15 AM,68.0,66.2,94,29.77,10.0,Calm,Calm,-,N/A,,Scattered Clouds,0,2012-10-19 08:15:00
4:35 AM,68.2,66.2,93,29.77,10.0,Calm,Calm,-,N/A,,Clear,0,2012-10-19 08:35:00
4:55 AM,67.8,66.2,95,29.77,10.0,Calm,Calm,-,N/A,,Clear,0,2012-10-19 08:55:00
5:15 AM,67.8,66.2,95,29.78,10.0,Calm,Calm,-,N/A,,Clear,0,2012-10-19 09:15:00
5:35 AM,68.0,66.2,94,29.77,10.0,Calm,Calm,-,N/A,,Clear,0,2012-10-19 09:35:00
5:55 AM,68.0,66.4,95,29.77,7.0,Calm,Calm,-,N/A,,Clear,0,2012-10-19 09:55:00
6:15 AM,67.8,66.2,95,29.77,7.0,South,3.5,-,N/A,,Clear,190,2012-10-19 10:15:00
6:35 AM,67.8,66.2,95,29.77,7.0,Calm,Calm,-,N/A,,Clear,0,2012-10-19 10:35:00
6:55 AM,67.3,66.0,96,29.78,5.0,Calm,Calm,-,N/A,,Clear,0,2012-10-19 10:55:00
7:15 AM,67.1,66.0,96,29.78,5.0,South,3.5,-,N/A,,Clear,180,2012-10-19 11:15:00
7:35 AM,67.1,65.8,96,29.78,5.0,Calm,Calm,-,N/A,,Clear,0,2012-10-19 11:35:00
7:55 AM,67.3,66.2,96,29.80,5.0,Calm,Calm,-,N/A,,Clear,0,2012-10-19 11:55:00
8:15 AM,67.6,66.6,96,29.81,5.0,Calm,Calm,-,N/A,,Clear,0,2012-10-19 12:15:00
8:35 AM,68.4,67.3,96,29.81,7.0,Calm,Calm,-,N/A,,Clear,0,2012-10-19 12:35:00
8:55 AM,68.9,67.6,96,29.80,10.0,Calm,Calm,-,N/A,,Clear,0,2012-10-19 12:55:00
9:15 AM,69.8,68.2,95,29.80,10.0,Calm,Calm,-,N/A,,Clear,0,2012-10-19 13:15:00
9:35 AM,71.2,68.2,90,29.80,10.0,SSE,3.5,-,N/A,,Clear,160,2012-10-19 13:35:00
9:55 AM,72.5,68.4,87,29.79,10.0,South,5.8,-,N/A,,Clear,190,2012-10-19 13:55:00
10:15 AM,73.4,67.8,83,29.79,10.0,South,4.6,-,N/A,,Clear,190,2012-10-19 14:15:00
10:35 AM,73.2,67.1,81,29.79,10.0,SSW,4.6,-,N/A,,Clear,200,2012-10-19 14:35:00
10:55 AM,74.1,66.9,78,29.79,10.0,SSW,4.6,-,N/A,,Clear,210,2012-10-19 14:55:00
11:15 AM,74.3,66.6,77,29.80,10.0,SSW,4.6,-,N/A,,Clear,200,2012-10-19 15:15:00
11:35 AM,73.4,66.6,79,29.79,10.0,Calm,Calm,-,N/A,,Scattered Clouds,0,2012-10-19 15:35:00
11:55 AM,73.2,66.9,81,29.80,10.0,Calm,Calm,-,N/A,Rain,Light Rain,0,2012-10-19 15:55:00
12:15 PM,72.9,67.6,84,29.79,10.0,WSW,4.6,-,N/A,Rain,Light Rain,240,2012-10-19 16:15:00
12:35 PM,72.1,68.2,87,29.78,10.0,SW,4.6,-,0.01,Rain,Light Rain,230,2012-10-19 16:35:00
12:55 PM,71.6,67.8,88,29.76,10.0,Calm,Calm,-,0.01,,Scattered Clouds,0,2012-10-19 16:55:00
1:15 PM,71.8,67.8,87,29.75,10.0,Calm,Calm,-,N/A,,Mostly Cloudy,0,2012-10-19 17:15:00
1:35 PM,73.0,68.0,84,29.74,10.0,Calm,Calm,-,N/A,,Mostly Cloudy,0,2012-10-19 17:35:00
1:55 PM,74.1,68.0,81,29.74,10.0,South,4.6,-,N/A,,Scattered Clouds,190,2012-10-19 17:55:00
2:15 PM,74.7,67.6,79,29.73,10.0,SSW,4.6,-,N/A,,Scattered Clouds,200,2012-10-19 18:15:00
2:35 PM,74.1,66.6,77,29.72,10.0,Calm,Calm,-,N/A,,Scattered Clouds,0,2012-10-19 18:35:00
2:55 PM,74.7,65.3,73,29.73,10.0,South,6.9,-,N/A,,Scattered Clouds,170,2012-10-19 18:55:00
3:15 PM,74.7,64.8,71,29.73,10.0,South,4.6,-,N/A,,Scattered Clouds,190,2012-10-19 19:15:00
3:35 PM,74.5,65.3,73,29.72,10.0,South,5.8,-,N/A,,Scattered Clouds,180,2012-10-19 19:35:00
3:55 PM,75.2,65.5,72,29.72,10.0,South,6.9,-,N/A,,Scattered Clouds,190,2012-10-19 19:55:00
4:15 PM,73.9,65.5,75,29.71,10.0,South,4.6,-,N/A,,Mostly Cloudy,190,2012-10-19 20:15:00
4:35 PM,73.4,65.3,76,29.71,10.0,South,5.8,-,N/A,,Mostly Cloudy,190,2012-10-19 20:35:00
4:55 PM,73.4,65.7,77,29.71,10.0,South,4.6,-,N/A,,Scattered Clouds,180,2012-10-19 20:55:00
5:15 PM,73.4,66.2,78,29.71,10.0,Calm,Calm,-,N/A,,Scattered Clouds,0,2012-10-19 21:15:00
5:35 PM,73.0,66.2,79,29.70,10.0,South,3.5,-,N/A,,Scattered Clouds,170,2012-10-19 21:35:00
5:55 PM,72.7,66.4,81,29.71,10.0,South,3.5,-,N/A,,Scattered Clouds,190,2012-10-19 21:55:00
6:15 PM,72.3,66.4,82,29.71,10.0,South,4.6,-,N/A,,Scattered Clouds,170,2012-10-19 22:15:00
6:35 PM,72.0,66.4,83,29.71,10.0,South,4.6,-,N/A,,Scattered Clouds,170,2012-10-19 22:35:00
6:55 PM,71.8,66.7,84,29.71,10.0,Calm,Calm,-,N/A,,Clear,0,2012-10-19 22:55:00
7:15 PM,71.6,66.9,85,29.72,10.0,SW,4.6,-,N/A,,Clear,220,2012-10-19 23:15:00
7:35 PM,70.7,67.1,88,29.72,10.0,SW,4.6,-,N/A,,Clear,220,2012-10-19 23:35:00
7:55 PM,70.2,67.1,90,29.72,10.0,SSW,3.5,-,N/A,,Clear,200,2012-10-19 23:55:00
8:15 PM,70.0,67.1,91,29.72,10.0,Calm,Calm,-,N/A,,Clear,0,2012-10-20 00:15:00
8:35 PM,69.8,67.1,91,29.73,10.0,Calm,Calm,-,N/A,,Clear,0,2012-10-20 00:35:00
8:55 PM,69.3,67.1,93,29.73,7.0,Calm,Calm,-,N/A,,Clear,0,2012-10-20 00:55:00
9:15 PM,68.9,66.9,93,29.73,7.0,SSW,4.6,-,N/A,,Clear,200,2012-10-20 01:15:00
9:35 PM,68.9,66.7,93,29.74,10.0,SSW,4.6,-,N/A,,Clear,210,2012-10-20 01:35:00
9:55 PM,68.9,66.6,92,29.74,10.0,SSW,5.8,-,N/A,,Clear,210,2012-10-20 01:55:00
10:15 PM,68.9,66.6,92,29.74,10.0,SSW,4.6,-,N/A,,Clear,210,2012-10-20 02:15:00
10:35 PM,68.4,66.2,93,29.75,10.0,SW,4.6,-,N/A,,Clear,220,2012-10-20 02:35:00
10:55 PM,68.0,66.0,93,29.76,7.0,SSW,3.5,-,N/A,,Clear,210,2012-10-20 02:55:00
11:15 PM,67.6,65.8,94,29.77,10.0,SW,5.8,-,N/A,,Clear,220,2012-10-20 03:15:00
11:35 PM,67.5,65.7,94,29.77,10.0,WSW,6.9,-,N/A,,Clear,240,2012-10-20 03:35:00
11:55 PM,67.3,65.3,93,29.77,10.0,WSW,9.2,-,N/A,,Clear,250,2012-10-20 03:55:00